TimeAKDT,TemperatureF,Dew PointF,Humidity,Sea Level PressureIn,VisibilityMPH,Wind Direction,Wind SpeedMPH,Gust SpeedMPH,PrecipitationIn,Events,Conditions,WindDirDegrees,DateUTC
12:53 AM,57.9,53.1,84,30.26,10.0,WSW,4.6,-,N/A,,Overcast,250,2013-07-16 08:53:00
1:53 AM,57.0,53.1,87,30.26,10.0,Calm,Calm,-,0.00,Rain,Light Rain,0,2013-07-16 09:53:00
2:53 AM,57.0,53.1,87,30.26,10.0,Calm,Calm,-,0.00,,Overcast,0,2013-07-16 10:53:00
3:53 AM,57.9,53.1,84,30.24,10.0,Calm,Calm,-,N/A,,Overcast,0,2013-07-16 11:53:00
4:53 AM,57.9,53.1,84,30.23,10.0,Calm,Calm,-,N/A,,Overcast,0,2013-07-16 12:53:00
5:53 AM,57.9,53.1,84,30.23,10.0,Calm,Calm,-,N/A,,Overcast,0,2013-07-16 13:53:00
6:53 AM,57.9,53.1,84,30.23,10.0,North,3.5,-,N/A,,Overcast,350,2013-07-16 14:53:00
7:53 AM,59.0,53.1,81,30.24,10.0,NNW,3.5,-,N/A,,Overcast,340,2013-07-16 15:53:00
8:53 AM,60.1,52.0,75,30.23,10.0,Calm,Calm,-,N/A,,Overcast,0,2013-07-16 16:53:00
9:00 AM,60.8,51.8,72,30.23,10.0,Calm,Calm,-,N/A,,Overcast,0,2013-07-16 17:00:00
9:53 AM,63.0,51.1,65,30.22,10.0,Calm,Calm,-,N/A,,Mostly Cloudy,0,2013-07-16 17:53:00
10:53 AM,66.0,52.0,60,30.22,10.0,WNW,8.1,-,N/A,,Mostly Cloudy,300,2013-07-16 18:53:00
11:53 AM,64.0,52.0,65,30.22,10.0,WNW,6.9,-,N/A,,Mostly Cloudy,290,2013-07-16 19:53:00
12:53 PM,64.9,53.1,65,30.21,10.0,West,5.8,-,N/A,,Overcast,270,2013-07-16 20:53:00
1:53 PM,64.9,52.0,63,30.21,10.0,West,8.1,-,N/A,,Overcast,260,2013-07-16 21:53:00
2:53 PM,68.0,52.0,56,30.19,10.0,Variable,3.5,-,N/A,,Mostly Cloudy,0,2013-07-16 22:53:00
3:53 PM,66.9,52.0,59,30.19,10.0,WNW,10.4,-,N/A,,Mostly Cloudy,290,2013-07-16 23:53:00
4:53 PM,68.0,53.1,59,30.17,10.0,NW,8.1,-,N/A,,Mostly Cloudy,310,2013-07-17 00:53:00
5:53 PM,68.0,53.1,59,30.16,10.0,WNW,6.9,-,N/A,,Mostly Cloudy,300,2013-07-17 01:53:00
6:53 PM,69.1,54.0,58,30.15,10.0,WSW,6.9,-,N/A,,Mostly Cloudy,240,2013-07-17 02:53:00
7:53 PM,66.0,53.1,63,30.15,10.0,Calm,Calm,-,N/A,,Mostly Cloudy,0,2013-07-17 03:53:00
8:53 PM,66.0,52.0,60,30.14,10.0,Calm,Calm,-,N/A,,Overcast,0,2013-07-17 04:53:00
9:53 PM,64.0,52.0,65,30.14,10.0,Calm,Calm,-,N/A,,Mostly Cloudy,0,2013-07-17 05:53:00
10:53 PM,64.0,54.0,70,30.14,10.0,Calm,Calm,-,N/A,,Overcast,0,2013-07-17 06:53:00
11:53 PM,63.0,55.0,75,30.14,10.0,Calm,Calm,-,N/A,,Overcast,0,2013-07-17 07:53:00